This is the latest recevied weather packets stored in our database for station/object VK2HN. If no packets are shown the sender has not sent any weather packets the latest 10 day(s).
| Time | Temp. | Humidity | Pressure | Rain* | Wind** | Luminosity | Snow |
|---|---|---|---|---|---|---|---|
| 1778206487 | 20° C | 49% | 1017.7 hPa | 0 mm | - | - | - |
| 1778206187 | 20.56° C | 50% | 1017.9 hPa | 0 mm | - | - | - |
| 1778205887 | 20° C | 51% | 1017.9 hPa | 0 mm | - | - | - |
| 1778205587 | 20° C | 50% | 1017.9 hPa | 0 mm | - | - | - |
| 1778205287 | 20° C | 52% | 1017.9 hPa | 0 mm | - | - | - |
| 1778204987 | 20° C | 51% | 1018 hPa | 0 mm | - | - | - |
| 1778204687 | 20° C | 50% | 1018.1 hPa | 0 mm | - | - | - |
| 1778204387 | 19.44° C | 53% | 1018.2 hPa | 0 mm | - | - | - |
| 1778204087 | 19.44° C | 51% | 1018.3 hPa | 0 mm | - | - | - |
| 1778203787 | 19.44° C | 52% | 1018.4 hPa | 0 mm | - | - | - |
| 1778203487 | 18.89° C | 53% | 1018.5 hPa | 0 mm | - | - | - |
| 1778203187 | 18.33° C | 54% | 1018.5 hPa | 0 mm | - | - | - |
| 1778202887 | 18.33° C | 56% | 1018.5 hPa | 0 mm | - | - | - |
| 1778202587 | 17.78° C | 56% | 1018.6 hPa | 0 mm | - | - | - |
| 1778202287 | 17.22° C | 57% | 1018.6 hPa | 0 mm | - | - | - |
| 1778201987 | 16.67° C | 59% | 1018.8 hPa | 0 mm | - | - | - |
| 1778201687 | 16.67° C | 62% | 1018.8 hPa | 0 mm | - | - | - |
| 1778201387 | 16.11° C | 61% | 1019 hPa | 0 mm | - | - | - |
| 1778201087 | 16.11° C | 61% | 1019 hPa | 0 mm | - | - | - |
| 1778200787 | 16.11° C | 63% | 1019 hPa | 0 mm | - | - | - |
| 1778200487 | 15.56° C | 63% | 1019 hPa | 0 mm | - | - | - |
| 1778200187 | 15.56° C | 64% | 1019.1 hPa | 0 mm | - | - | - |
| 1778199887 | 15.56° C | 64% | 1019.2 hPa | 0 mm | - | - | - |
| 1778199587 | 15° C | 62% | 1019.1 hPa | 0 mm | - | - | - |
| 1778199287 | 15° C | 63% | 1019.3 hPa | 0 mm | - | - | - |
* Rain latest hour (hover to see other rain measurements)
** Current wind speed in m/s (hover to see current wind gust speed)